CCA001 RPLL-ZGSZ

Flight info

Callsign CCA001
Flight time N/A
Altitude 38000
Route SIRCA2R SIRCA L628 DODUS W3 AKOTA A583 SABNO DCT TOFEE DCT SUKER DCT ALDOM J103 ROBIN DCT ALLEY DCT GOBBI DCT LANDA LANDA8XA
Aircraft B77W/H-SDE1E2E3FGHIJ2J3J4J5M1RWXY/LB1D1

Departure

Time 2026-05-07 05:12
Airport Ninoy Aquino International Airport (RPLL)

Arrival

Time N/A
Airport Shenzhen Bao'an International Airport (ZGSZ)
Time Latitude Longitude Altitude Speed Heading
2026-05-07 04:44 14.50333 121.00422 45 ft 0 kts 22°
2026-05-07 04:51 14.50332 121.00422 45 ft 0 kts 22°
2026-05-07 04:59 14.50330 121.00421 42 ft 1 kts 22°
2026-05-07 04:59 14.50322 121.00418 43 ft 1 kts 22°
2026-05-07 04:59 14.50308 121.00412 40 ft 3 kts 22°
2026-05-07 05:00 14.50291 121.00405 44 ft 3 kts 20°
2026-05-07 05:00 14.50272 121.00404 41 ft 3 kts 324°
2026-05-07 05:00 14.50259 121.00419 43 ft 3 kts 300°
2026-05-07 05:00 14.50251 121.00436 39 ft 3 kts 261°
2026-05-07 05:01 14.50262 121.00451 42 ft 3 kts 216°
2026-05-07 05:01 14.50273 121.00463 39 ft 0 kts 240°
2026-05-07 05:04 14.50272 121.00461 39 ft 1 kts 240°
2026-05-07 05:04 14.50265 121.00448 43 ft 3 kts 241°
2026-05-07 05:04 14.50249 121.00418 41 ft 10 kts 241°
2026-05-07 05:04 14.50189 121.00345 43 ft 11 kts 195°
2026-05-07 05:05 14.50122 121.00311 42 ft 11 kts 227°
2026-05-07 05:05 14.50072 121.00245 42 ft 12 kts 237°
2026-05-07 05:05 14.50029 121.00170 41 ft 12 kts 239°
2026-05-07 05:05 14.49987 121.00096 41 ft 12 kts 240°
2026-05-07 05:06 14.49965 121.00055 41 ft 0 kts 239°
2026-05-07 05:06 14.49964 121.00055 41 ft 0 kts 239°
2026-05-07 05:06 14.49961 121.00049 41 ft 2 kts 239°
2026-05-07 05:06 14.49956 121.00040 41 ft 0 kts 239°
2026-05-07 05:08 14.49932 121.00000 40 ft 12 kts 236°
2026-05-07 05:08 14.49917 120.99983 40 ft 1 kts 221°
2026-05-07 05:09 14.49906 120.99978 40 ft 3 kts 204°
2026-05-07 05:09 14.49883 120.99973 40 ft 4 kts 191°
2026-05-07 05:09 14.49878 120.99972 40 ft 0 kts 188°
2026-05-07 05:09 14.49872 120.99972 40 ft 3 kts 182°
2026-05-07 05:10 14.49838 120.99989 40 ft 9 kts 150°
2026-05-07 05:10 14.49805 121.00038 40 ft 8 kts 81°
2026-05-07 05:10 14.49831 121.00100 40 ft 0 kts 60°
2026-05-07 05:11 14.49865 121.00161 40 ft 29 kts 60°
2026-05-07 05:11 14.50154 121.00684 44 ft 141 kts 62°
2026-05-07 05:12 14.50740 121.01873 318 ft 208 kts 62°
2026-05-07 05:12 14.51456 121.03088 1872 ft 195 kts 59°
2026-05-07 05:12 14.52194 121.04381 2756 ft 223 kts 60°
2026-05-07 05:12 14.53026 121.05866 3167 ft 254 kts 61°
2026-05-07 05:13 14.53911 121.07449 4140 ft 259 kts 60°
2026-05-07 05:13 14.54818 121.09069 5254 ft 262 kts 61°
2026-05-07 05:13 14.55738 121.10712 6326 ft 267 kts 60°
2026-05-07 05:13 14.56827 121.12271 7149 ft 275 kts 42°
2026-05-07 05:14 14.58517 121.13252 8028 ft 284 kts 18°
2026-05-07 05:14 14.60484 121.13513 8972 ft 290 kts
2026-05-07 05:14 14.62520 121.13503 9879 ft 296 kts
2026-05-07 05:14 14.64616 121.13495 10632 ft 308 kts
2026-05-07 05:15 14.66818 121.13236 10839 ft 336 kts 342°
2026-05-07 05:15 14.68889 121.11927 11071 ft 367 kts 315°
2026-05-07 05:15 14.70274 121.09642 11458 ft 388 kts 288°
2026-05-07 05:15 14.70597 121.06861 12178 ft 394 kts 267°
2026-05-07 05:16 14.70333 121.04008 12897 ft 404 kts 264°
2026-05-07 05:16 14.70090 121.01096 13754 ft 407 kts 265°
2026-05-07 05:16 14.69601 120.98211 14388 ft 410 kts 251°
2026-05-07 05:16 14.68583 120.95448 15010 ft 416 kts 248°
2026-05-07 05:17 14.67505 120.92648 15736 ft 421 kts 248°
2026-05-07 05:17 14.66442 120.89815 16544 ft 424 kts 249°
2026-05-07 05:17 14.65401 120.86953 17322 ft 428 kts 249°
2026-05-07 05:17 14.64362 120.84058 18045 ft 433 kts 249°
2026-05-07 05:18 14.63311 120.81121 18665 ft 438 kts 249°
2026-05-07 05:18 14.62245 120.78155 19272 ft 442 kts 249°
2026-05-07 05:18 14.61183 120.75202 19904 ft 445 kts 249°
2026-05-07 05:18 14.60100 120.72193 20543 ft 449 kts 249°
2026-05-07 05:19 14.59006 120.69156 21150 ft 453 kts 249°
2026-05-07 05:19 14.57905 120.66100 21758 ft 457 kts 249°
2026-05-07 05:19 14.56791 120.63007 22362 ft 461 kts 249°
2026-05-07 05:19 14.55668 120.59894 22934 ft 465 kts 249°
2026-05-07 05:20 14.54533 120.56746 23504 ft 469 kts 249°
2026-05-07 05:20 14.53390 120.53577 24000 ft 472 kts 249°
2026-05-07 05:20 14.52241 120.50392 24507 ft 475 kts 249°
2026-05-07 05:20 14.51086 120.47195 25012 ft 477 kts 249°
2026-05-07 05:21 14.49924 120.43976 25497 ft 480 kts 250°
2026-05-07 05:21 14.47562 120.37441 26355 ft 488 kts 250°
2026-05-07 05:21 14.46387 120.34157 26955 ft 487 kts 252°
2026-05-07 05:22 14.45616 120.30755 27380 ft 489 kts 264°
2026-05-07 05:22 14.45360 120.27253 27803 ft 492 kts 268°
2026-05-07 05:22 14.45215 120.23714 28218 ft 495 kts 269°
2026-05-07 05:22 14.45069 120.20157 28635 ft 497 kts 268°
2026-05-07 05:23 14.44881 120.16592 29043 ft 499 kts 268°
2026-05-07 05:23 14.44651 120.13010 29433 ft 501 kts 267°
2026-05-07 05:23 14.44394 120.09416 29808 ft 503 kts 266°
2026-05-07 05:23 14.44126 120.05826 30220 ft 502 kts 266°
2026-05-07 05:24 14.43861 120.02282 30658 ft 501 kts 266°
2026-05-07 05:24 14.43603 119.98774 31093 ft 499 kts 266°
2026-05-07 05:24 14.43346 119.95260 31537 ft 497 kts 266°
2026-05-07 05:24 14.43093 119.91708 31967 ft 496 kts 266°
2026-05-07 05:25 14.42850 119.88165 32405 ft 495 kts 266°
2026-05-07 05:25 14.42609 119.84620 32828 ft 494 kts 266°
2026-05-07 05:25 14.42366 119.81089 33273 ft 492 kts 266°
2026-05-07 05:25 14.42121 119.77578 33745 ft 491 kts 266°
2026-05-07 05:26 14.41864 119.74075 34128 ft 490 kts 266°
2026-05-07 05:26 14.41598 119.70575 34471 ft 489 kts 266°
2026-05-07 05:26 14.41331 119.67079 34808 ft 489 kts 266°
2026-05-07 05:26 14.41066 119.63590 35151 ft 488 kts 266°
2026-05-07 05:27 14.40803 119.60098 35509 ft 487 kts 266°
2026-05-07 05:27 14.40543 119.56620 35844 ft 484 kts 267°
2026-05-07 05:27 14.40695 119.53162 36028 ft 486 kts 282°
2026-05-07 05:27 14.41733 119.49854 36277 ft 485 kts 295°
2026-05-07 05:28 14.43457 119.46880 36591 ft 484 kts 309°
2026-05-07 05:28 14.45680 119.44372 36862 ft 481 kts 313°
2026-05-07 05:28 14.47994 119.41897 36976 ft 477 kts 314°
2026-05-07 05:29 14.52645 119.36929 37192 ft 484 kts 313°
2026-05-07 05:29 14.54967 119.34417 37468 ft 484 kts 313°
2026-05-07 05:29 14.57276 119.31898 37791 ft 483 kts 313°
2026-05-07 05:30 14.61124 119.27668 37861 ft 487 kts 313°
2026-05-07 05:30 14.65726 119.22585 37844 ft 481 kts 313°
2026-05-07 05:31 14.70278 119.17555 37868 ft 478 kts 313°
2026-05-07 05:31 14.74813 119.12545 37863 ft 477 kts 313°
2026-05-07 05:32 14.79347 119.07533 37868 ft 477 kts 313°
2026-05-07 05:32 14.83882 119.02517 37870 ft 478 kts 313°
2026-05-07 05:33 14.88355 118.97567 37867 ft 479 kts 313°
2026-05-07 05:33 14.92872 118.92564 37870 ft 480 kts 313°
2026-05-07 05:34 14.97428 118.87516 37874 ft 480 kts 313°
2026-05-07 05:34 15.01988 118.82460 37855 ft 481 kts 313°
2026-05-07 05:35 15.06555 118.77391 37870 ft 482 kts 313°
2026-05-07 05:35 15.11125 118.72317 37877 ft 482 kts 313°
2026-05-07 05:36 15.15696 118.67237 37873 ft 482 kts 313°
2026-05-07 05:36 15.20263 118.62159 37872 ft 482 kts 313°
2026-05-07 05:37 15.24822 118.57087 37880 ft 481 kts 313°
2026-05-07 05:37 15.29379 118.52012 37872 ft 480 kts 313°
2026-05-07 05:38 15.33926 118.46946 37862 ft 480 kts 313°
2026-05-07 05:38 15.38473 118.41876 37862 ft 480 kts 313°
2026-05-07 05:39 15.43015 118.36809 37879 ft 479 kts 313°
2026-05-07 05:39 15.47551 118.31744 37879 ft 478 kts 313°
2026-05-07 05:40 15.52070 118.26695 37864 ft 478 kts 313°
2026-05-07 05:40 15.56584 118.21648 37866 ft 477 kts 313°
2026-05-07 05:41 15.61097 118.16598 37881 ft 477 kts 313°
2026-05-07 05:41 15.65208 118.11996 37881 ft 477 kts 313°
2026-05-07 05:42 15.69802 118.06850 37888 ft 476 kts 313°
2026-05-07 05:42 15.74306 118.01800 37883 ft 477 kts 313°
2026-05-07 05:43 15.78745 117.96819 37885 ft 477 kts 313°
2026-05-07 05:43 15.83225 117.91789 37869 ft 477 kts 313°
2026-05-07 05:44 15.87735 117.86723 37866 ft 477 kts 313°
2026-05-07 05:44 15.92240 117.81658 37866 ft 477 kts 313°
2026-05-07 05:45 15.96740 117.76595 37869 ft 477 kts 313°
2026-05-07 05:45 16.01241 117.71527 37881 ft 477 kts 313°
2026-05-07 05:46 16.05735 117.66463 37881 ft 477 kts 313°
2026-05-07 05:46 16.10234 117.61391 37873 ft 477 kts 313°
2026-05-07 05:47 16.14728 117.56320 37874 ft 477 kts 313°
2026-05-07 05:47 16.19220 117.51247 37870 ft 476 kts 313°
2026-05-07 05:48 16.23712 117.46172 37884 ft 476 kts 313°
2026-05-07 05:48 16.28166 117.41136 37889 ft 476 kts 313°
2026-05-07 05:49 16.32651 117.36059 37868 ft 476 kts 313°
2026-05-07 05:49 16.37134 117.30981 37872 ft 476 kts 313°
2026-05-07 05:50 16.41614 117.25904 37887 ft 476 kts 313°
2026-05-07 05:50 16.46439 117.21220 37896 ft 474 kts 323°
2026-05-07 05:51 16.51982 117.17513 37894 ft 474 kts 332°
2026-05-07 05:51 16.57866 117.14399 37876 ft 474 kts 333°
2026-05-07 05:52 16.63768 117.11326 37879 ft 474 kts 333°
2026-05-07 05:52 16.69662 117.08217 37890 ft 474 kts 333°
2026-05-07 05:53 16.75542 117.05086 37892 ft 475 kts 333°
2026-05-07 05:53 16.81424 117.01945 37878 ft 475 kts 333°
2026-05-07 05:54 16.87179 116.98870 37877 ft 475 kts 333°
2026-05-07 05:54 16.93061 116.95728 37884 ft 475 kts 333°
2026-05-07 05:55 16.98938 116.92586 37897 ft 475 kts 333°
2026-05-07 05:55 17.04700 116.89503 37899 ft 474 kts 333°
2026-05-07 05:56 17.10577 116.86356 37882 ft 474 kts 333°
2026-05-07 05:56 17.16449 116.83211 37877 ft 474 kts 333°
2026-05-07 05:57 17.22323 116.80061 37882 ft 474 kts 333°
2026-05-07 05:57 17.28161 116.76929 37886 ft 474 kts 333°
2026-05-07 05:58 17.33984 116.73802 37883 ft 474 kts 333°
2026-05-07 05:58 17.39849 116.70651 37901 ft 473 kts 333°
2026-05-07 05:59 17.45707 116.67501 37887 ft 473 kts 333°
2026-05-07 05:59 17.51561 116.64351 37883 ft 473 kts 333°
2026-05-07 06:00 17.57410 116.61201 37887 ft 473 kts 332°
2026-05-07 06:00 17.63260 116.58049 37900 ft 472 kts 332°
2026-05-07 06:01 17.69099 116.54893 37859 ft 471 kts 332°
2026-05-07 06:01 17.74916 116.51742 37889 ft 470 kts 333°
2026-05-07 06:02 17.80749 116.48615 37904 ft 471 kts 332°
2026-05-07 06:02 17.86572 116.45470 37902 ft 471 kts 332°
2026-05-07 06:03 17.92364 116.42334 37892 ft 472 kts 332°
2026-05-07 06:03 17.98201 116.39173 37895 ft 472 kts 332°
2026-05-07 06:04 18.04028 116.36016 37893 ft 472 kts 332°
2026-05-07 06:04 18.09868 116.32850 37896 ft 472 kts 332°
2026-05-07 06:05 18.15708 116.29682 37895 ft 472 kts 332°
2026-05-07 06:05 18.21546 116.26513 37899 ft 472 kts 332°
2026-05-07 06:06 18.27381 116.23343 37899 ft 472 kts 332°
2026-05-07 06:06 18.33209 116.20173 37895 ft 471 kts 332°
2026-05-07 06:07 18.39031 116.17005 37896 ft 471 kts 332°
2026-05-07 06:07 18.44843 116.13840 37897 ft 470 kts 332°
2026-05-07 06:08 18.50655 116.10673 37894 ft 470 kts 332°
2026-05-07 06:08 18.56466 116.07503 37897 ft 470 kts 332°
2026-05-07 06:09 18.62237 116.04353 37897 ft 470 kts 332°
2026-05-07 06:09 18.68048 116.01179 37901 ft 470 kts 332°
2026-05-07 06:10 18.73768 115.98051 37904 ft 470 kts 332°
2026-05-07 06:10 18.79580 115.94871 37908 ft 470 kts 332°
2026-05-07 06:11 18.85383 115.91693 37903 ft 470 kts 332°
2026-05-07 06:11 18.91183 115.88515 37908 ft 470 kts 332°
2026-05-07 06:12 18.96759 115.84956 37900 ft 468 kts 320°
2026-05-07 06:12 19.01233 115.80002 37901 ft 467 kts 305°
2026-05-07 06:13 19.04675 115.74183 37902 ft 467 kts 301°
2026-05-07 06:13 19.08018 115.68286 37905 ft 467 kts 302°
2026-05-07 06:14 19.11399 115.62417 37904 ft 467 kts 302°
2026-05-07 06:14 19.14808 115.56563 37907 ft 467 kts 302°
2026-05-07 06:15 19.18223 115.50706 37905 ft 467 kts 302°
2026-05-07 06:15 19.21612 115.44883 37906 ft 467 kts 302°
2026-05-07 06:16 19.25039 115.38986 37910 ft 467 kts 302°
2026-05-07 06:16 19.28418 115.33165 37913 ft 467 kts 302°
2026-05-07 06:17 19.31815 115.27309 37908 ft 467 kts 302°
2026-05-07 06:17 19.35212 115.21452 37910 ft 466 kts 302°
2026-05-07 06:18 19.38601 115.15604 37906 ft 466 kts 302°
2026-05-07 06:18 19.41992 115.09744 37911 ft 466 kts 302°
2026-05-07 06:19 19.44806 115.04877 37913 ft 466 kts 302°
2026-05-07 06:19 19.48074 114.99221 37915 ft 466 kts 302°
2026-05-07 06:20 19.51453 114.93364 37912 ft 466 kts 302°
2026-05-07 06:20 19.54829 114.87510 37914 ft 466 kts 302°
2026-05-07 06:21 19.58205 114.81648 37908 ft 465 kts 302°
2026-05-07 06:21 19.61579 114.75783 37915 ft 465 kts 302°
2026-05-07 06:22 19.64946 114.69924 37915 ft 466 kts 302°
2026-05-07 06:22 19.69999 114.61127 37919 ft 465 kts 302°
2026-05-07 06:23 19.73360 114.55275 37908 ft 464 kts 302°
2026-05-07 06:23 19.76713 114.49429 37914 ft 463 kts 302°
2026-05-07 06:24 19.80035 114.43632 37915 ft 462 kts 302°
2026-05-07 06:24 19.81905 114.40890 37909 ft 458 kts 315°
2026-05-07 06:24 19.84403 114.38804 37930 ft 459 kts 329°
2026-05-07 06:25 19.87283 114.37336 37901 ft 461 kts 340°
2026-05-07 06:25 19.90411 114.36591 37907 ft 461 kts 353°
2026-05-07 06:25 19.96821 114.36091 37919 ft 463 kts 354°
2026-05-07 06:26 20.03258 114.35638 37935 ft 465 kts 353°
2026-05-07 06:26 20.09737 114.35115 37920 ft 467 kts 353°
2026-05-07 06:27 20.16164 114.34556 37910 ft 466 kts 353°
2026-05-07 06:27 20.22630 114.33984 37918 ft 466 kts 353°
2026-05-07 06:28 20.29090 114.33415 37917 ft 466 kts 353°
2026-05-07 06:28 20.35553 114.32847 37918 ft 466 kts 353°
2026-05-07 06:29 20.42012 114.32279 37918 ft 465 kts 353°
2026-05-07 06:29 20.48462 114.31712 37917 ft 465 kts 353°
2026-05-07 06:30 20.54904 114.31145 37922 ft 464 kts 353°
2026-05-07 06:30 20.61343 114.30577 37923 ft 464 kts 353°
2026-05-07 06:31 20.67774 114.30010 37929 ft 464 kts 352°
2026-05-07 06:31 20.74165 114.29446 37919 ft 464 kts 352°
2026-05-07 06:32 20.80587 114.28878 37923 ft 463 kts 352°
2026-05-07 06:32 20.87009 114.28317 37922 ft 463 kts 353°
2026-05-07 06:33 20.93428 114.27766 37926 ft 463 kts 353°
2026-05-07 06:33 20.96583 114.27260 37915 ft 456 kts 340°
2026-05-07 06:33 20.99448 114.25862 37936 ft 451 kts 325°
2026-05-07 06:34 21.01825 114.23701 37937 ft 450 kts 311°
2026-05-07 06:34 21.03696 114.21015 37935 ft 451 kts 302°
2026-05-07 06:34 21.05859 114.14740 37930 ft 456 kts 278°
2026-05-07 06:35 21.06330 114.07944 37931 ft 460 kts 276°
2026-05-07 06:35 21.06767 114.01093 37924 ft 462 kts 277°